Year,Month,Day,Hour,Minute,Value (Times are PST for temperature in C)
2008,09,03,00,00,12.80
2008,09,03,00,01,12.80
2008,09,03,00,02,12.80
2008,09,03,00,03,12.80
2008,09,03,00,04,12.80
2008,09,03,00,05,12.80
2008,09,03,00,06,12.80
2008,09,03,00,07,12.80
2008,09,03,00,08,12.80
2008,09,03,00,09,12.80
2008,09,03,00,10,12.80
2008,09,03,00,11,12.80
2008,09,03,00,12,12.80
2008,09,03,00,13,12.80
2008,09,03,00,14,12.80
2008,09,03,00,15,12.80
2008,09,03,00,16,12.80
2008,09,03,00,17,12.80
2008,09,03,00,18,12.80
2008,09,03,00,19,12.80
2008,09,03,00,20,12.80
2008,09,03,00,21,12.80
2008,09,03,00,22,12.80
2008,09,03,00,23,12.80
2008,09,03,00,24,12.80
2008,09,03,00,25,12.70
2008,09,03,00,26,12.70
2008,09,03,00,27,12.70
2008,09,03,00,28,12.70
2008,09,03,00,29,12.70
2008,09,03,00,30,12.70
2008,09,03,00,31,12.70
2008,09,03,00,32,12.80
2008,09,03,00,33,12.80
2008,09,03,00,34,12.80
2008,09,03,00,35,12.80
2008,09,03,00,36,12.80
2008,09,03,00,37,12.80
2008,09,03,00,38,12.80
2008,09,03,00,39,12.80
2008,09,03,00,40,12.80
2008,09,03,00,41,12.80
2008,09,03,00,42,12.80
2008,09,03,00,43,12.80
2008,09,03,00,44,12.80
2008,09,03,00,45,12.80
2008,09,03,00,46,12.80
2008,09,03,00,47,12.80
2008,09,03,00,48,12.80
2008,09,03,00,49,12.80
2008,09,03,00,50,12.80
2008,09,03,00,51,12.80
2008,09,03,00,52,12.80
2008,09,03,00,53,12.80
2008,09,03,00,54,12.80
2008,09,03,00,55,12.80
2008,09,03,00,56,12.80
2008,09,03,00,57,12.80
2008,09,03,00,58,12.80
2008,09,03,00,59,12.80
2008,09,03,01,00,12.80
2008,09,03,01,01,12.80
2008,09,03,01,02,12.80
2008,09,03,01,03,12.80
2008,09,03,01,04,12.80
2008,09,03,01,05,12.80
2008,09,03,01,06,12.80
2008,09,03,01,07,12.80
2008,09,03,01,08,12.80
2008,09,03,01,09,12.80
2008,09,03,01,10,12.80
2008,09,03,01,11,12.80
2008,09,03,01,12,12.80
2008,09,03,01,13,12.80
2008,09,03,01,14,12.80
2008,09,03,01,15,12.80
2008,09,03,01,16,12.80
2008,09,03,01,17,12.80
2008,09,03,01,18,12.80
2008,09,03,01,19,12.80
2008,09,03,01,20,12.70
2008,09,03,01,21,12.70
2008,09,03,01,22,12.70
2008,09,03,01,23,12.70
2008,09,03,01,24,12.70
2008,09,03,01,25,12.70
2008,09,03,01,26,12.70
2008,09,03,01,27,12.60
2008,09,03,01,28,12.60
2008,09,03,01,29,12.60
2008,09,03,01,30,12.60
2008,09,03,01,31,12.60
2008,09,03,01,32,12.60
2008,09,03,01,33,12.50
2008,09,03,01,34,12.50
2008,09,03,01,35,12.50
2008,09,03,01,36,12.50
2008,09,03,01,37,12.40
2008,09,03,01,38,12.40
2008,09,03,01,39,12.40
2008,09,03,01,40,12.40
2008,09,03,01,41,12.30
2008,09,03,01,42,12.30
2008,09,03,01,43,12.30
2008,09,03,01,44,12.30
2008,09,03,01,45,12.30
2008,09,03,01,46,12.30
2008,09,03,01,47,12.30
2008,09,03,01,48,12.30
2008,09,03,01,49,12.30
2008,09,03,01,50,12.30
2008,09,03,01,51,12.30
2008,09,03,01,52,12.30
2008,09,03,01,53,12.30
2008,09,03,01,54,12.20
2008,09,03,01,55,12.20
2008,09,03,01,56,12.20
2008,09,03,01,57,12.20
2008,09,03,01,58,12.20
2008,09,03,01,59,12.20
2008,09,03,02,00,12.20
2008,09,03,02,01,12.30
2008,09,03,02,02,12.30
2008,09,03,02,03,12.30
2008,09,03,02,04,12.30
2008,09,03,02,05,12.30
2008,09,03,02,06,12.30
2008,09,03,02,07,12.30
2008,09,03,02,08,12.30
2008,09,03,02,09,12.30
2008,09,03,02,10,12.30
2008,09,03,02,11,12.30
2008,09,03,02,12,12.30
2008,09,03,02,13,12.30
2008,09,03,02,14,12.30
2008,09,03,02,15,12.30
2008,09,03,02,16,12.30
2008,09,03,02,17,12.30
2008,09,03,02,18,12.30
2008,09,03,02,19,12.30
2008,09,03,02,20,12.30
2008,09,03,02,21,12.30
2008,09,03,02,22,12.30
2008,09,03,02,23,12.30
2008,09,03,02,24,12.30
2008,09,03,02,25,12.30
2008,09,03,02,26,12.30
2008,09,03,02,27,12.30
2008,09,03,02,28,12.30
2008,09,03,02,29,12.30
2008,09,03,02,30,12.30
2008,09,03,02,31,12.30
2008,09,03,02,32,12.30
2008,09,03,02,33,12.30
2008,09,03,02,34,12.30
2008,09,03,02,35,12.30
2008,09,03,02,36,12.30
2008,09,03,02,37,12.30
2008,09,03,02,38,12.30
2008,09,03,02,39,12.30
2008,09,03,02,40,12.30
2008,09,03,02,41,12.30
2008,09,03,02,42,12.30
2008,09,03,02,43,12.30
2008,09,03,02,44,12.30
2008,09,03,02,45,12.30
2008,09,03,02,46,12.30
2008,09,03,02,47,12.30
2008,09,03,02,48,12.30
2008,09,03,02,49,12.30
2008,09,03,02,50,12.30
2008,09,03,02,51,12.30
2008,09,03,02,52,12.30
2008,09,03,02,53,12.40
2008,09,03,02,54,12.40
2008,09,03,02,55,12.40
2008,09,03,02,56,12.40
2008,09,03,02,57,12.40
2008,09,03,02,58,12.40
2008,09,03,02,59,12.40
2008,09,03,03,00,12.40
2008,09,03,03,01,12.40
2008,09,03,03,02,12.40
2008,09,03,03,03,12.50
2008,09,03,03,04,12.50
2008,09,03,03,05,12.50
2008,09,03,03,06,12.50
2008,09,03,03,07,12.50
2008,09,03,03,08,12.50
2008,09,03,03,09,12.50
2008,09,03,03,10,12.50
2008,09,03,03,11,12.50
2008,09,03,03,12,12.50
2008,09,03,03,13,12.50
2008,09,03,03,14,12.50
2008,09,03,03,15,12.50
2008,09,03,03,16,12.50
2008,09,03,03,17,12.50
2008,09,03,03,18,12.50
2008,09,03,03,19,12.50
2008,09,03,03,20,12.50
2008,09,03,03,21,12.50
2008,09,03,03,22,12.40
2008,09,03,03,23,12.40
2008,09,03,03,24,12.40
2008,09,03,03,25,12.40
2008,09,03,03,26,12.40
2008,09,03,03,27,12.40
2008,09,03,03,28,12.40
2008,09,03,03,29,12.30
2008,09,03,03,30,12.30
2008,09,03,03,31,12.30
2008,09,03,03,32,12.30
2008,09,03,03,33,12.30
2008,09,03,03,34,12.30
2008,09,03,03,35,12.30
2008,09,03,03,36,12.30
2008,09,03,03,37,12.30
2008,09,03,03,38,12.30
2008,09,03,03,39,12.30
2008,09,03,03,40,12.30
2008,09,03,03,41,12.20
2008,09,03,03,42,12.20
2008,09,03,03,43,12.20
2008,09,03,03,44,12.20
2008,09,03,03,45,12.20
2008,09,03,03,46,12.20
2008,09,03,03,47,12.20
2008,09,03,03,48,12.20
2008,09,03,03,49,12.20
2008,09,03,03,50,12.20
2008,09,03,03,51,12.20
2008,09,03,03,52,12.20
2008,09,03,03,53,12.20
2008,09,03,03,54,12.20
2008,09,03,03,55,12.10
2008,09,03,03,56,12.10
2008,09,03,03,57,12.00
2008,09,03,03,58,12.00
2008,09,03,03,59,12.00
2008,09,03,04,00,12.00
2008,09,03,04,01,11.90
2008,09,03,04,02,11.90
2008,09,03,04,03,11.90
2008,09,03,04,04,11.90
2008,09,03,04,05,11.90
2008,09,03,04,06,11.90
2008,09,03,04,07,11.90
2008,09,03,04,08,11.90
2008,09,03,04,09,11.80
2008,09,03,04,10,11.80
2008,09,03,04,11,11.80
2008,09,03,04,12,11.80
2008,09,03,04,13,11.80
2008,09,03,04,14,11.80
2008,09,03,04,15,11.80
2008,09,03,04,16,11.80
2008,09,03,04,17,11.80
2008,09,03,04,18,11.70
2008,09,03,04,19,11.70
2008,09,03,04,20,11.70
2008,09,03,04,21,11.70
2008,09,03,04,22,11.70
2008,09,03,04,23,11.70
2008,09,03,04,24,11.70
2008,09,03,04,25,11.70
2008,09,03,04,26,11.70
2008,09,03,04,27,11.70
2008,09,03,04,28,11.70
2008,09,03,04,29,11.70
2008,09,03,04,30,11.70
2008,09,03,04,31,11.70
2008,09,03,04,32,11.70
2008,09,03,04,33,11.70
2008,09,03,04,34,11.70
2008,09,03,04,35,11.70
2008,09,03,04,36,11.70
2008,09,03,04,37,11.70
2008,09,03,04,38,11.70
2008,09,03,04,39,11.70
2008,09,03,04,40,11.70
2008,09,03,04,41,11.70
2008,09,03,04,42,11.70
2008,09,03,04,43,11.70
2008,09,03,04,44,11.70
2008,09,03,04,45,11.70
2008,09,03,04,46,11.70
2008,09,03,04,47,11.70
2008,09,03,04,48,11.70
2008,09,03,04,49,11.60
2008,09,03,04,50,11.60
2008,09,03,04,51,11.60
2008,09,03,04,52,11.60
2008,09,03,04,53,11.60
2008,09,03,04,54,11.60
2008,09,03,04,55,11.60
2008,09,03,04,56,11.60
2008,09,03,04,57,11.60
2008,09,03,04,58,11.60
2008,09,03,04,59,11.60
2008,09,03,05,00,11.60
2008,09,03,05,01,11.60
2008,09,03,05,02,11.60
2008,09,03,05,03,11.60
2008,09,03,05,04,11.60
2008,09,03,05,05,11.60
2008,09,03,05,06,11.60
2008,09,03,05,07,11.60
2008,09,03,05,08,11.60
2008,09,03,05,09,11.60
2008,09,03,05,10,11.60
2008,09,03,05,11,11.60
2008,09,03,05,12,11.60
2008,09,03,05,13,11.60
2008,09,03,05,14,11.60
2008,09,03,05,15,11.60
2008,09,03,05,16,11.60
2008,09,03,05,17,11.60
2008,09,03,05,18,11.60
2008,09,03,05,19,11.60
2008,09,03,05,20,11.60
2008,09,03,05,21,11.60
2008,09,03,05,22,11.60
2008,09,03,05,23,11.60
2008,09,03,05,24,11.60
2008,09,03,05,25,11.60
2008,09,03,05,26,11.60
2008,09,03,05,27,11.60
2008,09,03,05,28,11.60
2008,09,03,05,29,11.50
2008,09,03,05,30,11.40
2008,09,03,05,31,11.40
2008,09,03,05,32,11.40
2008,09,03,05,33,11.40
2008,09,03,05,34,11.40
2008,09,03,05,35,11.40
2008,09,03,05,36,11.40
2008,09,03,05,37,11.40
2008,09,03,05,38,11.40
2008,09,03,05,39,11.40
2008,09,03,05,40,11.40
2008,09,03,05,41,11.40
2008,09,03,05,42,11.40
2008,09,03,05,43,11.40
2008,09,03,05,44,11.40
2008,09,03,05,45,11.40
2008,09,03,05,46,11.40
2008,09,03,05,47,11.40
2008,09,03,05,48,11.40
2008,09,03,05,49,11.40
2008,09,03,05,50,11.40
2008,09,03,05,51,11.40
2008,09,03,05,52,11.40
2008,09,03,05,53,11.40
2008,09,03,05,54,11.40
2008,09,03,05,55,11.40
2008,09,03,05,56,11.40
2008,09,03,05,57,11.40
2008,09,03,05,58,11.40
2008,09,03,05,59,11.40
2008,09,03,06,00,11.40
2008,09,03,06,01,11.40
2008,09,03,06,02,11.40
2008,09,03,06,03,11.40
2008,09,03,06,04,11.40
2008,09,03,06,05,11.40
2008,09,03,06,06,11.40
2008,09,03,06,07,11.40
2008,09,03,06,08,11.40
2008,09,03,06,09,11.40
2008,09,03,06,10,11.40
2008,09,03,06,11,11.40
2008,09,03,06,12,11.40
2008,09,03,06,13,11.40
2008,09,03,06,14,11.40
2008,09,03,06,15,11.40
2008,09,03,06,16,11.40
2008,09,03,06,17,11.40
2008,09,03,06,18,11.40
2008,09,03,06,19,11.40
2008,09,03,06,20,11.40
2008,09,03,06,21,11.40
2008,09,03,06,22,11.40
2008,09,03,06,23,11.40
2008,09,03,06,24,11.40
2008,09,03,06,25,11.40
2008,09,03,06,26,11.50
2008,09,03,06,27,11.60
2008,09,03,06,28,11.60
2008,09,03,06,29,11.60
2008,09,03,06,30,11.60
2008,09,03,06,31,11.60
2008,09,03,06,32,11.60
2008,09,03,06,33,11.60
2008,09,03,06,34,11.60
2008,09,03,06,35,11.60
2008,09,03,06,36,11.60
2008,09,03,06,37,11.60
2008,09,03,06,38,11.60
2008,09,03,06,39,11.70
2008,09,03,06,40,11.70
2008,09,03,06,41,11.70
2008,09,03,06,42,11.70
2008,09,03,06,43,11.70
2008,09,03,06,44,11.70
2008,09,03,06,45,11.70
2008,09,03,06,46,11.70
2008,09,03,06,47,11.70
2008,09,03,06,48,11.80
2008,09,03,06,49,11.80
2008,09,03,06,50,11.80
2008,09,03,06,51,11.80
2008,09,03,06,52,11.80
2008,09,03,06,53,11.80
2008,09,03,06,54,11.80
2008,09,03,06,55,11.80
2008,09,03,06,56,11.80
2008,09,03,06,57,11.80
2008,09,03,06,58,11.80
2008,09,03,06,59,11.90
2008,09,03,07,00,11.90
2008,09,03,07,01,11.90
2008,09,03,07,02,11.90
2008,09,03,07,03,11.90
2008,09,03,07,04,11.90
2008,09,03,07,05,11.90
2008,09,03,07,06,11.90
2008,09,03,07,07,11.90
2008,09,03,07,08,11.90
2008,09,03,07,09,11.90
2008,09,03,07,10,11.90
2008,09,03,07,11,11.90
2008,09,03,07,12,11.90
2008,09,03,07,13,11.90
2008,09,03,07,14,11.90
2008,09,03,07,15,11.90
2008,09,03,07,16,12.00
2008,09,03,07,17,12.00
2008,09,03,07,18,12.00
2008,09,03,07,19,12.00
2008,09,03,07,20,12.00
2008,09,03,07,21,12.00
2008,09,03,07,22,12.00
2008,09,03,07,23,12.00
2008,09,03,07,24,12.00
2008,09,03,07,25,12.00
2008,09,03,07,26,12.00
2008,09,03,07,27,12.00
2008,09,03,07,28,12.00
2008,09,03,07,29,12.00
2008,09,03,07,30,12.10
2008,09,03,07,31,12.10
2008,09,03,07,32,12.20
2008,09,03,07,33,12.20
2008,09,03,07,34,12.20
2008,09,03,07,35,12.20
2008,09,03,07,36,12.20
2008,09,03,07,37,12.30
2008,09,03,07,38,12.30
2008,09,03,07,39,12.30
2008,09,03,07,40,12.30
2008,09,03,07,41,12.40
2008,09,03,07,42,12.50
2008,09,03,07,43,12.50
2008,09,03,07,44,12.50
2008,09,03,07,45,12.50
2008,09,03,07,46,12.50
2008,09,03,07,47,12.50
2008,09,03,07,48,12.50
2008,09,03,07,49,12.50
2008,09,03,07,50,12.60
2008,09,03,07,51,12.70
2008,09,03,07,52,12.70
2008,09,03,07,53,12.80
2008,09,03,07,54,12.80
2008,09,03,07,55,12.90
2008,09,03,07,56,12.90
2008,09,03,07,57,12.90
2008,09,03,07,58,12.90
2008,09,03,07,59,12.90
2008,09,03,08,00,12.90
2008,09,03,08,01,13.00
2008,09,03,08,02,13.00
2008,09,03,08,03,13.10
2008,09,03,08,04,13.10
2008,09,03,08,05,13.10
2008,09,03,08,06,13.10
2008,09,03,08,07,13.10
2008,09,03,08,08,13.10
2008,09,03,08,09,13.20
2008,09,03,08,10,13.20
2008,09,03,08,11,13.20
2008,09,03,08,12,13.20
2008,09,03,08,13,13.10
2008,09,03,08,14,13.10
2008,09,03,08,15,13.10
2008,09,03,08,16,13.10
2008,09,03,08,17,13.10
2008,09,03,08,18,13.00
2008,09,03,08,19,13.00
2008,09,03,08,20,12.90
2008,09,03,08,21,12.90
2008,09,03,08,22,12.90
2008,09,03,08,23,13.00
2008,09,03,08,24,13.00
2008,09,03,08,25,13.00
2008,09,03,08,26,13.00
2008,09,03,08,27,13.00
2008,09,03,08,28,13.10
2008,09,03,08,29,13.10
2008,09,03,08,30,13.10
2008,09,03,08,31,13.10
2008,09,03,08,32,13.20
2008,09,03,08,33,13.20
2008,09,03,08,34,13.30
2008,09,03,08,35,13.30
2008,09,03,08,36,13.30
2008,09,03,08,37,13.30
2008,09,03,08,38,13.30
2008,09,03,08,39,13.30
2008,09,03,08,40,13.30
2008,09,03,08,41,13.30
2008,09,03,08,42,13.30
2008,09,03,08,43,13.30
2008,09,03,08,44,13.30
2008,09,03,08,45,13.30
2008,09,03,08,46,13.30
2008,09,03,08,47,13.30
2008,09,03,08,48,13.40
2008,09,03,08,49,13.40
2008,09,03,08,50,13.40
2008,09,03,08,51,13.40
2008,09,03,08,52,13.40
2008,09,03,08,53,13.40
2008,09,03,08,54,13.40
2008,09,03,08,55,13.50
2008,09,03,08,56,13.50
2008,09,03,08,57,13.50
2008,09,03,08,58,13.50
2008,09,03,08,59,13.60
2008,09,03,09,00,13.60
2008,09,03,09,01,13.60
2008,09,03,09,02,13.70
2008,09,03,09,03,13.70
2008,09,03,09,04,13.70
2008,09,03,09,05,13.70
2008,09,03,09,06,13.70
2008,09,03,09,07,13.80
2008,09,03,09,08,13.80
2008,09,03,09,09,13.80
2008,09,03,09,10,13.90
2008,09,03,09,11,13.90
2008,09,03,09,12,14.00
2008,09,03,09,13,14.00
2008,09,03,09,14,14.10
2008,09,03,09,15,14.10
2008,09,03,09,16,14.20
2008,09,03,09,17,14.20
2008,09,03,09,18,14.20
2008,09,03,09,19,14.30
2008,09,03,09,20,14.40
2008,09,03,09,21,14.40
2008,09,03,09,22,14.50
2008,09,03,09,23,14.60
2008,09,03,09,24,14.60
2008,09,03,09,25,14.60
2008,09,03,09,26,14.60
2008,09,03,09,27,14.70
2008,09,03,09,28,14.70
2008,09,03,09,29,14.70
2008,09,03,09,30,14.70
2008,09,03,09,31,14.70
2008,09,03,09,32,14.70
2008,09,03,09,33,14.70
2008,09,03,09,34,14.80
2008,09,03,09,35,14.80
2008,09,03,09,36,14.80
2008,09,03,09,37,14.90
2008,09,03,09,38,15.00
2008,09,03,09,39,15.10
2008,09,03,09,40,15.10
2008,09,03,09,41,15.20
2008,09,03,09,42,15.30
2008,09,03,09,43,15.30
2008,09,03,09,44,15.30
2008,09,03,09,45,15.40
2008,09,03,09,46,15.40
2008,09,03,09,47,15.50
2008,09,03,09,48,15.60
2008,09,03,09,49,15.60
2008,09,03,09,50,15.60
2008,09,03,09,51,15.70
2008,09,03,09,52,15.70
2008,09,03,09,53,15.80
2008,09,03,09,54,15.80
2008,09,03,09,55,15.80
2008,09,03,09,56,15.80
2008,09,03,09,57,15.80
2008,09,03,09,58,15.80
2008,09,03,09,59,15.80
2008,09,03,10,00,15.80
2008,09,03,10,01,15.80
2008,09,03,10,02,15.80
2008,09,03,10,03,15.80
2008,09,03,10,04,15.80
2008,09,03,10,05,15.80
2008,09,03,10,06,15.80
2008,09,03,10,07,15.80
2008,09,03,10,08,15.80
2008,09,03,10,09,15.80
2008,09,03,10,10,15.80
2008,09,03,10,11,15.80
2008,09,03,10,12,15.80
2008,09,03,10,13,15.80
2008,09,03,10,14,15.80
2008,09,03,10,15,15.80
2008,09,03,10,16,15.80
2008,09,03,10,17,15.80
2008,09,03,10,18,15.70
2008,09,03,10,19,15.70
2008,09,03,10,20,15.70
2008,09,03,10,21,15.70
2008,09,03,10,22,15.80
2008,09,03,10,23,15.80
2008,09,03,10,24,15.80
2008,09,03,10,25,15.80
2008,09,03,10,26,15.90
2008,09,03,10,27,15.90
2008,09,03,10,28,16.10
2008,09,03,10,29,16.10
2008,09,03,10,30,16.10
2008,09,03,10,31,16.20
2008,09,03,10,32,16.20
2008,09,03,10,33,16.10
2008,09,03,10,34,16.10
2008,09,03,10,35,16.10
2008,09,03,10,36,16.10
2008,09,03,10,37,16.20
2008,09,03,10,38,16.20
2008,09,03,10,39,16.30
2008,09,03,10,40,16.30
2008,09,03,10,41,16.30
2008,09,03,10,42,16.30
2008,09,03,10,43,16.40
2008,09,03,10,44,16.40
2008,09,03,10,45,16.40
2008,09,03,10,46,16.50
2008,09,03,10,47,16.60
2008,09,03,10,48,16.60
2008,09,03,10,49,16.70
2008,09,03,10,50,16.80
2008,09,03,10,51,16.80
2008,09,03,10,52,16.80
2008,09,03,10,53,16.80
2008,09,03,10,54,16.80
2008,09,03,10,55,16.80
2008,09,03,10,56,16.80
2008,09,03,10,57,16.70
2008,09,03,10,58,16.80
2008,09,03,10,59,16.80
2008,09,03,11,00,16.80
2008,09,03,11,01,16.80
2008,09,03,11,02,16.80
2008,09,03,11,03,16.80
2008,09,03,11,04,16.80
2008,09,03,11,05,16.80
2008,09,03,11,06,16.80
2008,09,03,11,07,16.80
2008,09,03,11,08,16.90
2008,09,03,11,09,16.90
2008,09,03,11,10,16.90
2008,09,03,11,11,16.80
2008,09,03,11,12,16.80
2008,09,03,11,13,16.90
2008,09,03,11,14,16.90
2008,09,03,11,15,17.00
2008,09,03,11,16,17.10
2008,09,03,11,17,17.30
2008,09,03,11,18,17.30
2008,09,03,11,19,17.40
2008,09,03,11,20,17.40
2008,09,03,11,21,17.40
2008,09,03,11,22,17.50
2008,09,03,11,23,17.50
2008,09,03,11,24,17.40
2008,09,03,11,25,17.30
2008,09,03,11,26,17.40
2008,09,03,11,27,17.40
2008,09,03,11,28,17.40
2008,09,03,11,29,17.30
2008,09,03,11,30,17.30
2008,09,03,11,31,17.30
2008,09,03,11,32,17.30
2008,09,03,11,33,17.30
2008,09,03,11,34,17.30
2008,09,03,11,35,17.40
2008,09,03,11,36,17.50
2008,09,03,11,37,17.60
2008,09,03,11,38,17.70
2008,09,03,11,39,17.70
2008,09,03,11,40,17.70
2008,09,03,11,41,17.70
2008,09,03,11,42,17.70
2008,09,03,11,43,17.80
2008,09,03,11,44,17.70
2008,09,03,11,45,17.70
2008,09,03,11,46,17.70
2008,09,03,11,47,17.70
2008,09,03,11,48,17.70
2008,09,03,11,49,17.70
2008,09,03,11,50,17.80
2008,09,03,11,51,17.90
2008,09,03,11,52,17.90
2008,09,03,11,53,17.90
2008,09,03,11,54,18.00
2008,09,03,11,55,18.10
2008,09,03,11,56,18.10
2008,09,03,11,57,18.10
2008,09,03,11,58,17.90
2008,09,03,11,59,17.90
2008,09,03,12,00,17.90
2008,09,03,12,01,17.80
2008,09,03,12,02,17.80
2008,09,03,12,03,17.90
2008,09,03,12,04,17.90
2008,09,03,12,05,17.90
2008,09,03,12,06,17.90
2008,09,03,12,07,18.00
2008,09,03,12,08,18.10
2008,09,03,12,09,18.20
2008,09,03,12,10,18.30
2008,09,03,12,11,18.40
2008,09,03,12,12,18.50
2008,09,03,12,13,18.50
2008,09,03,12,14,18.50
2008,09,03,12,15,18.60
2008,09,03,12,16,18.50
2008,09,03,12,17,18.40
2008,09,03,12,18,18.40
2008,09,03,12,19,18.30
2008,09,03,12,20,18.30
2008,09,03,12,21,18.20
2008,09,03,12,22,18.20
2008,09,03,12,23,18.20
2008,09,03,12,24,18.20
2008,09,03,12,25,18.40
2008,09,03,12,26,18.50
2008,09,03,12,27,18.50
2008,09,03,12,28,18.60
2008,09,03,12,29,18.60
2008,09,03,12,30,18.70
2008,09,03,12,31,18.70
2008,09,03,12,32,18.80
2008,09,03,12,33,18.80
2008,09,03,12,34,18.80
2008,09,03,12,35,18.70
2008,09,03,12,36,18.60
2008,09,03,12,37,18.40
2008,09,03,12,38,18.30
2008,09,03,12,39,18.20
2008,09,03,12,40,18.20
2008,09,03,12,41,18.20
2008,09,03,12,42,18.10
2008,09,03,12,43,18.10
2008,09,03,12,44,18.10
2008,09,03,12,45,18.20
2008,09,03,12,46,18.20
2008,09,03,12,47,18.20
2008,09,03,12,48,18.10
2008,09,03,12,49,18.10
2008,09,03,12,50,18.00
2008,09,03,12,51,17.90
2008,09,03,12,52,17.90
2008,09,03,12,53,17.70
2008,09,03,12,54,17.70
2008,09,03,12,55,17.70
2008,09,03,12,56,17.70
2008,09,03,12,57,17.80
2008,09,03,12,58,17.80
2008,09,03,12,59,17.90
2008,09,03,13,00,18.00
2008,09,03,13,01,18.20
2008,09,03,13,02,18.20
2008,09,03,13,03,18.20
2008,09,03,13,04,18.20
2008,09,03,13,05,18.20
2008,09,03,13,06,18.20
2008,09,03,13,07,18.50
2008,09,03,13,08,18.50
2008,09,03,13,09,18.60
2008,09,03,13,10,18.70
2008,09,03,13,11,18.70
2008,09,03,13,12,18.60
2008,09,03,13,13,18.70
2008,09,03,13,14,18.70
2008,09,03,13,15,18.70
2008,09,03,13,16,18.60
2008,09,03,13,17,18.50
2008,09,03,13,18,18.40
2008,09,03,13,19,18.20
2008,09,03,13,20,18.20
2008,09,03,13,21,18.20
2008,09,03,13,22,18.20
2008,09,03,13,23,18.10
2008,09,03,13,24,18.10
2008,09,03,13,25,18.20
2008,09,03,13,26,18.20
2008,09,03,13,27,18.20
2008,09,03,13,28,18.30
2008,09,03,13,29,18.30
2008,09,03,13,30,18.40
2008,09,03,13,31,18.30
2008,09,03,13,32,18.30
2008,09,03,13,33,18.30
2008,09,03,13,34,18.30
2008,09,03,13,35,18.30
2008,09,03,13,36,18.30
2008,09,03,13,37,18.40
2008,09,03,13,38,18.30
2008,09,03,13,39,18.40
2008,09,03,13,40,18.40
2008,09,03,13,41,18.40
2008,09,03,13,42,18.30
2008,09,03,13,43,18.20
2008,09,03,13,44,18.20
2008,09,03,13,45,18.10
2008,09,03,13,46,18.00
2008,09,03,13,47,17.80
2008,09,03,13,48,17.70
2008,09,03,13,49,17.60
2008,09,03,13,50,17.50
2008,09,03,13,51,17.50
2008,09,03,13,52,17.50
2008,09,03,13,53,17.50
2008,09,03,13,54,17.50
2008,09,03,13,55,17.50
2008,09,03,13,56,17.60
2008,09,03,13,57,17.70
2008,09,03,13,58,17.80
2008,09,03,13,59,17.70
2008,09,03,14,00,17.70
2008,09,03,14,01,17.80
2008,09,03,14,02,17.90
2008,09,03,14,03,17.90
2008,09,03,14,04,17.90
2008,09,03,14,05,17.90
2008,09,03,14,06,17.90
2008,09,03,14,07,17.90
2008,09,03,14,08,17.90
2008,09,03,14,09,17.90
2008,09,03,14,10,17.90
2008,09,03,14,11,17.90
2008,09,03,14,12,17.90
2008,09,03,14,13,17.90
2008,09,03,14,14,17.90
2008,09,03,14,15,18.00
2008,09,03,14,16,18.10
2008,09,03,14,17,18.10
2008,09,03,14,18,18.10
2008,09,03,14,19,18.10
2008,09,03,14,20,18.10
2008,09,03,14,21,18.10
2008,09,03,14,22,18.00
2008,09,03,14,23,17.90
2008,09,03,14,24,17.90
2008,09,03,14,25,17.90
2008,09,03,14,26,17.90
2008,09,03,14,27,17.90
2008,09,03,14,28,17.90
2008,09,03,14,29,18.10
2008,09,03,14,30,18.10
2008,09,03,14,31,18.20
2008,09,03,14,32,18.20
2008,09,03,14,33,18.20
2008,09,03,14,34,18.20
2008,09,03,14,35,18.20
2008,09,03,14,36,18.20
2008,09,03,14,37,18.20
2008,09,03,14,38,18.10
2008,09,03,14,39,18.00
2008,09,03,14,40,17.90
2008,09,03,14,41,17.80
2008,09,03,14,42,17.70
2008,09,03,14,43,17.50
2008,09,03,14,44,17.50
2008,09,03,14,45,17.40
2008,09,03,14,46,17.30
2008,09,03,14,47,17.30
2008,09,03,14,48,17.40
2008,09,03,14,49,17.40
2008,09,03,14,50,17.40
2008,09,03,14,51,17.40
2008,09,03,14,52,17.30
2008,09,03,14,53,17.30
2008,09,03,14,54,17.30
2008,09,03,14,55,17.40
2008,09,03,14,56,17.50
2008,09,03,14,57,17.60
2008,09,03,14,58,17.60
2008,09,03,14,59,17.60
2008,09,03,15,00,17.60
2008,09,03,15,01,17.70
2008,09,03,15,02,17.80
2008,09,03,15,03,17.80
2008,09,03,15,04,17.90
2008,09,03,15,05,17.90
2008,09,03,15,06,17.90
2008,09,03,15,07,18.00
2008,09,03,15,08,18.20
2008,09,03,15,09,18.20
2008,09,03,15,10,18.20
2008,09,03,15,11,18.20
2008,09,03,15,12,18.10
2008,09,03,15,13,18.20
2008,09,03,15,14,18.20
2008,09,03,15,15,18.20
2008,09,03,15,16,18.30
2008,09,03,15,17,18.40
2008,09,03,15,18,18.40
2008,09,03,15,19,18.40
2008,09,03,15,20,18.40
2008,09,03,15,21,18.50
2008,09,03,15,22,18.50
2008,09,03,15,23,18.50
2008,09,03,15,24,18.50
2008,09,03,15,25,18.50
2008,09,03,15,26,18.40
2008,09,03,15,27,18.40
2008,09,03,15,28,18.40
2008,09,03,15,29,18.30
2008,09,03,15,30,18.20
2008,09,03,15,31,18.20
2008,09,03,15,32,18.10
2008,09,03,15,33,18.00
2008,09,03,15,34,17.90
2008,09,03,15,35,17.90
2008,09,03,15,36,17.90
2008,09,03,15,37,18.00
2008,09,03,15,38,18.20
2008,09,03,15,39,18.20
2008,09,03,15,40,18.30
2008,09,03,15,41,18.50
2008,09,03,15,42,18.50
2008,09,03,15,43,18.60
2008,09,03,15,44,18.60
2008,09,03,15,45,18.60
2008,09,03,15,46,18.60
2008,09,03,15,47,18.70
2008,09,03,15,48,18.80
2008,09,03,15,49,18.80
2008,09,03,15,50,18.90
2008,09,03,15,51,18.80
2008,09,03,15,52,18.80
2008,09,03,15,53,18.80
2008,09,03,15,54,18.80
2008,09,03,15,55,18.80
2008,09,03,15,56,18.90
2008,09,03,15,57,18.90
2008,09,03,15,58,18.90
2008,09,03,15,59,18.90
2008,09,03,16,00,18.90
2008,09,03,16,01,19.00
2008,09,03,16,02,19.10
2008,09,03,16,03,19.10
2008,09,03,16,04,19.10
2008,09,03,16,05,19.10
2008,09,03,16,06,19.10
2008,09,03,16,07,19.10
2008,09,03,16,08,19.10
2008,09,03,16,09,19.10
2008,09,03,16,10,19.10
2008,09,03,16,11,19.10
2008,09,03,16,12,19.00
2008,09,03,16,13,18.90
2008,09,03,16,14,18.90
2008,09,03,16,15,18.80
2008,09,03,16,16,18.70
2008,09,03,16,17,18.60
2008,09,03,16,18,18.60
2008,09,03,16,19,18.50
2008,09,03,16,20,18.50
2008,09,03,16,21,18.50
2008,09,03,16,22,18.50
2008,09,03,16,23,18.50
2008,09,03,16,24,18.50
2008,09,03,16,25,18.60
2008,09,03,16,26,18.60
2008,09,03,16,27,18.60
2008,09,03,16,28,18.60
2008,09,03,16,29,18.60
2008,09,03,16,30,18.50
2008,09,03,16,31,18.50
2008,09,03,16,32,18.50
2008,09,03,16,33,18.50
2008,09,03,16,34,18.60
2008,09,03,16,35,18.60
2008,09,03,16,36,18.60
2008,09,03,16,37,18.60
2008,09,03,16,38,18.50
2008,09,03,16,39,18.50
2008,09,03,16,40,18.50
2008,09,03,16,41,18.40
2008,09,03,16,42,17.90
2008,09,03,16,43,17.60
2008,09,03,16,44,17.40
2008,09,03,16,45,17.30
2008,09,03,16,46,17.10
2008,09,03,16,47,16.90
2008,09,03,16,48,16.80
2008,09,03,16,49,16.70
2008,09,03,16,50,16.60
2008,09,03,16,51,16.50
2008,09,03,16,52,16.40
2008,09,03,16,53,16.40
2008,09,03,16,54,16.40
2008,09,03,16,55,16.50
2008,09,03,16,56,16.60
2008,09,03,16,57,16.70
2008,09,03,16,58,16.70
2008,09,03,16,59,16.80
2008,09,03,17,00,16.90
2008,09,03,17,01,16.90
2008,09,03,17,02,17.00
2008,09,03,17,03,17.00
2008,09,03,17,04,17.00
2008,09,03,17,05,17.00
2008,09,03,17,06,17.00
2008,09,03,17,07,17.00
2008,09,03,17,08,17.00
2008,09,03,17,09,17.00
2008,09,03,17,10,17.00
2008,09,03,17,11,17.00
2008,09,03,17,12,17.00
2008,09,03,17,13,17.00
2008,09,03,17,14,17.00
2008,09,03,17,15,17.00
2008,09,03,17,16,17.00
2008,09,03,17,17,17.00
2008,09,03,17,18,16.90
2008,09,03,17,19,17.00